EW5472 Weather Reports


time (UTC)temp
C
wind
direction
speed
KPH
gust
KPH
rain 1hr
cm
rain 24hr
cm
rain mn
cm
humidity
%
barometer
mb
20260906230040 21 175 3.2 19.3 0.00 0.00 0.00 30 1005.7
20260906224538 21 188 3.2 22.5 0.00 0.00 0.00 31 1005.5
20260906223022 22 153 1.6 22.5 0.00 0.00 0.00 30 1005.2
20260906221520 22 159 1.6 11.3 0.00 0.00 0.00 30 1005.2
20260906220004 23 155 0.0 8.0 0.00 0.00 0.00 29 1005.1
20260906214504 23 161 0.0 8.0 0.00 0.00 0.00 28 1005.1
20260906213042 23 183 0.0 3.2 0.00 0.00 0.00 28 1005.0
20260906211541 24 185 4.8 25.7 0.00 0.00 0.00 24 1005.2
20260906210023 24 197 4.8 29.0 0.00 0.00 0.00 25 1005.1
20260906204521 25 204 3.2 16.1 0.00 0.00 0.00 23 1005.2
20260906203006 25 175 0.0 19.3 0.00 0.00 0.00 26 1005.3
20260906201501 26 186 0.0 16.1 0.00 0.00 0.00 24 1005.4
20260906200044 25 191 0.0 14.5 0.00 0.00 0.00 23 1005.5
20260906194540 25 192 0.0 9.7 0.00 0.00 0.00 24 1005.7
20260906193021 26 217 0.0 14.5 0.00 0.00 0.00 23 1005.7
20260906191519 25 228 1.6 24.1 0.00 0.00 0.00 23 1005.8
20260906190111 25 223 4.8 17.7 0.00 0.00 0.00 23 1006.0
20260906184559 25 234 0.0 14.5 0.00 0.00 0.00 26 1006.3
20260906183036 24 210 0.0 3.2 0.00 0.00 0.00 28 1006.3
20260906181536 24 195 0.0 20.9 0.00 0.00 0.00 26 1006.7
20260906180014 24 213 3.2 19.3 0.00 0.00 0.00 27 1007.0
20260906174511 23 194 9.7 40.2 0.00 0.00 0.00 26 1007.6
20260906173049 22 198 3.2 16.1 0.00 0.00 0.00 31 1008.0
20260906171545 21 54 0.0 3.2 0.00 0.00 0.00 34 1008.2
20260906170053 21 56 0.0 1.6 0.00 0.00 0.00 32 1008.3
20260906164521 20 49 0.0 0.0 0.00 0.00 0.00 34 1008.4
20260906163001 20 61 0.0 1.6 0.00 0.00 0.00 35 1008.5
20260906161558 19 62 0.0 0.0 0.00 0.00 0.00 35 1008.8
20260906160037 18 61 0.0 1.6 0.00 0.00 0.00 36 1008.9
20260906154535 18 82 0.0 1.6 0.00 0.00 0.00 38 1008.9
20260906153024 18 216 0.0 0.0 0.00 0.00 0.00 36 1008.9
20260906151523 17 216 0.0 0.0 0.00 0.00 0.00 37 1009.2
20260906150022 16 216 0.0 0.0 0.00 0.00 0.00 43 1009.2
20260906144532 16 216 0.0 0.0 0.00 0.00 0.00 47 1009.3
20260906143020 13 216 0.0 1.6 0.00 0.00 0.00 53 1009.3
20260906141520 11 216 0.0 0.0 0.00 0.00 0.00 63 1009.3
20260906140019 10 216 0.0 0.0 0.00 0.00 0.00 63 1009.3
20260906134526 9 216 0.0 0.0 0.00 0.00 0.00 63 1009.3
20260906133105 8 216 0.0 1.6 0.00 0.00 0.00 63 1009.3
20260906131600 7 227 0.0 11.3 0.00 0.00 0.00 67 1009.1
20260906130039 7 188 0.0 0.0 0.00 0.00 0.00 66 1009.0
20260906124544 7 188 0.0 0.0 0.00 0.00 0.00 66 1008.8
20260906123031 7 188 0.0 1.6 0.00 0.00 0.00 65 1008.8
20260906121519 7 189 0.0 4.8 0.00 0.00 0.00 64 1008.7
20260906114609 7 174 0.0 1.6 0.00 0.00 0.00 62 1008.8
20260906113042 8 174 0.0 0.0 0.00 0.00 0.00 60 1008.9
20260906111540 8 174 0.0 1.6 0.00 0.00 0.00 59 1008.8
20260906110020 8 174 0.0 0.0 0.00 0.00 0.00 59 1008.7
20260906104519 8 174 0.0 0.0 0.00 0.00 0.00 60 1008.4
20260906103002 8 174 0.0 0.0 0.00 0.00 0.00 60 1008.6
20260906101502 7 174 0.0 0.0 0.00 0.00 0.00 62 1008.6
20260906100043 7 174 0.0 1.6 0.00 0.00 0.00 63 1008.5
20260906094541 7 174 0.0 0.0 0.00 0.00 0.00 62 1008.6
20260906093023 7 174 0.0 0.0 0.00 0.00 0.00 61 1008.3
20260906091520 8 174 0.0 1.6 0.00 0.00 0.00 59 1008.2
20260906090006 7 174 0.0 3.2 0.00 0.00 0.00 61 1008.1
20260906084502 7 173 0.0 1.6 0.00 0.00 0.00 60 1008.1
20260906083043 7 173 0.0 4.8 0.00 0.00 0.00 60 1008.1
20260906081543 8 173 0.0 1.6 0.00 0.00 0.00 57 1008.1
20260906080028 8 173 0.0 3.2 0.00 0.00 0.00 56 1008.1
20260906074516 9 173 0.0 1.6 0.00 0.00 0.00 54 1008.1
20260906073006 10 173 0.0 0.0 0.00 0.00 0.00 50 1008.0
20260906071502 10 173 0.0 0.0 0.00 0.00 0.00 50 1007.9
20260906070001 10 171 0.0 0.0 0.00 0.00 0.00 50 1007.7
20260906064501 10 171 0.0 1.6 0.00 0.00 0.00 49 1007.7
20260906063102 10 171 0.0 6.4 0.00 0.00 0.00 51 1007.7
20260906061558 10 171 0.0 1.6 0.00 0.00 0.00 49 1007.7
20260906060053 11 171 0.0 0.0 0.00 0.00 0.00 48 1007.5
20260906054550 12 171 0.0 6.4 0.00 0.00 0.00 46 1007.4
20260906053031 12 169 0.0 1.6 0.00 0.00 0.00 44 1007.3
20260906051531 12 169 0.0 4.8 0.00 0.00 0.00 44 1007.4
20260906050014 12 169 0.0 0.0 0.00 0.00 0.00 46 1007.4
20260906044513 12 169 0.0 0.0 0.00 0.00 0.00 48 1007.4
20260906043100 11 176 0.0 1.6 0.00 0.00 0.00 49 1007.4
20260906041556 12 176 0.0 0.0 0.00 0.00 0.00 48 1007.3
20260906040029 13 176 0.0 0.0 0.00 0.00 0.00 44 1007.2
20260906034525 15 175 0.0 3.2 0.00 0.00 0.00 41 1007.2
20260906033007 16 175 0.0 8.0 0.00 0.00 0.00 36 1007.2
20260906031559 18 171 0.0 11.3 0.00 0.00 0.00 33 1007.0
20260906030044 19 164 1.6 8.0 0.00 0.00 0.00 30 1006.8
20260906024545 19 161 0.0 9.7 0.00 0.00 0.00 30 1006.6
20260906023024 20 160 0.0 9.7 0.00 0.00 0.00 30 1006.4
20260906021522 20 160 0.0 8.0 0.00 0.00 0.00 30 1006.3
20260906020008 20 161 0.0 9.7 0.00 0.00 0.00 29 1006.2
20260906014506 20 151 0.0 9.7 0.00 0.00 0.00 29 1006.0
20260906013111 21 184 0.0 4.8 0.00 0.00 0.00 30 1006.0
20260906011559 22 173 0.0 9.7 0.00 0.00 0.00 29 1006.1
20260906010045 23 183 0.0 12.9 0.00 0.00 0.00 27 1006.1
20260906004526 25 202 3.2 12.9 0.00 0.00 0.00 24 1006.0
20260906003026 25 169 0.0 16.1 0.00 0.00 0.00 23 1005.9
20260906001514 25 174 0.0 17.7 0.00 0.00 0.00 23 1005.8
20260906000013 26 190 4.8 17.7 0.00 0.00 0.00 22 1005.8
20260905234548 26 155 0.0 24.1 0.00 0.00 0.00 22 1005.6
20260905233046 27 164 1.6 16.1 0.00 0.00 0.00 22 1005.6
20260905231535 27 214 0.0 8.0 0.00 0.00 0.00 21 1005.4